Location: El Gallo
(32.4380°N, 116.9347°W)
Time: 18:51:05
(UTC+00:00)

Cosmos 1725 Rocket - Pass Details

Date: 01 October 2022
Orbit: 961 x 991 km, 82.9° (Epoch: 01 December)

Event Time Altitude Azimuth Distance (km) Brightness Sun altitude
Rises 12:03:51 0° 179° (S) 3,676 6.9 -21.4°
Reaches altitude 10° 12:06:22 10° 177° (S) 2,734 6.3 -20.9°
Maximum altitude 12:12:37 75° 94° (E) 1,026 4.2 -19.6°
Drops below altitude 10° 12:18:56 10° 10° (N) 2,757 6.6 -18.3°
Sets 12:21:28 0° 9° (N) 3,709 7.3 -17.8°
